Location: Burbank
(38.7788°N, 114.0429°W)
Time: 10:46:33
(UTC+00:00)

A-11 Canister half - All Passes

Search period start: 15 May 2026 00:00
Search period end: 25 May 2026 00:00
Orbit: 1523 x 1685 km, 47.3° (Epoch: 14 May)

Date Brightness Start Highest point End Pass type
(mag) Time Alt. Az. Time Alt. Az. Time Alt. Az.
15 May - 01:56:50 10° W 02:06:20 63° NNW 02:16:12 10° ENE daylight
15 May - 04:03:16 10° WNW 04:12:49 53° N 04:22:39 10° E visible
15 May - 06:08:51 10° WNW 06:18:53 85° NNE 06:29:06 10° ESE visible
15 May - 08:14:33 10° WNW 08:23:24 37° SW 08:32:21 10° SSE visible
15 May - 21:31:10 10° SSE 21:35:53 15° ESE 21:40:39 10° E daylight
15 May - 23:30:08 10° SW 23:39:18 60° SE 23:48:46 10° ENE daylight
16 May - 01:34:56 10° W 01:44:25 64° NNW 01:54:16 10° ENE daylight
16 May - 03:41:22 10° WNW 03:50:52 53° N 04:00:39 10° E visible
16 May - 05:46:59 10° WNW 05:56:59 83° NNE 06:07:11 10° ESE visible
16 May - 07:52:35 10° WNW 08:01:35 39° SW 08:10:40 10° SSE visible
16 May - 21:10:02 10° SSE 21:14:08 14° ESE 21:18:15 10° E daylight
16 May - 23:08:24 10° SSW 23:17:29 57° SE 23:26:52 10° ENE daylight
17 May - 01:13:02 10° WSW 01:22:30 66° NNW 01:32:21 10° ENE daylight
17 May - 03:19:27 10° WNW 03:28:55 53° N 03:38:40 10° E visible
17 May - 05:25:07 10° WNW 05:35:05 80° NNE 05:45:16 10° ESE visible
17 May - 07:30:39 10° WNW 07:39:45 41° SW 07:48:59 10° SSE visible
17 May - 20:49:04 10° SE 20:52:23 12° ESE 20:55:42 10° E daylight
17 May - 22:46:39 10° SSW 22:55:40 54° SE 23:04:56 10° ENE daylight
18 May - 00:51:09 10° WSW 01:00:36 68° NNW 01:10:26 10° ENE daylight
18 May - 02:57:33 10° WNW 03:06:58 52° N 03:16:42 10° ENE visible
18 May - 05:03:15 10° WNW 05:13:10 78° NNE 05:23:20 10° ESE visible
18 May - 07:08:43 10° WNW 07:17:55 43° SW 07:27:16 10° SSE visible
18 May - 20:28:25 10° SE 20:30:38 11° ESE 20:32:51 10° ESE daylight
18 May - 22:24:56 10° SSW 22:33:51 51° SE 22:43:02 10° ENE daylight
19 May - 00:29:15 10° WSW 00:38:42 70° NNW 00:48:31 10° ENE daylight
19 May - 02:35:39 10° WNW 02:45:01 52° N 02:54:43 10° ENE daylight
19 May - 04:41:24 10° WNW 04:51:16 76° NNE 05:01:24 10° ESE visible
19 May - 06:46:48 10° WNW 06:56:05 46° SW 07:05:32 10° SSE visible
19 May - 22:03:14 10° SSW 22:12:02 48° SE 22:21:05 10° ENE daylight
20 May - 00:07:22 10° WSW 00:16:49 71° NNW 00:26:37 10° ENE daylight
20 May - 02:13:43 10° WNW 02:23:05 52° N 02:32:45 10° ENE daylight
20 May - 04:19:31 10° WNW 04:29:21 73° NNE 04:39:28 10° ESE visible
20 May - 06:24:54 10° WNW 06:34:15 48° SW 06:43:47 10° SSE visible
20 May - 08:36:03 10° WSW 08:37:36 10° WSW 08:39:11 10° SW visible
20 May - 21:41:33 10° SSW 21:50:14 46° SE 21:59:10 10° ENE daylight
20 May - 23:45:30 10° WSW 23:54:55 74° NNW 00:04:42 10° ENE daylight
21 May - 01:51:49 10° WNW 02:01:08 52° N 02:10:47 10° ENE daylight
21 May - 03:57:39 10° WNW 04:07:26 71° NNE 04:17:31 10° ESE visible
21 May - 06:02:59 10° WNW 06:12:24 51° SW 06:22:01 10° SSE visible
21 May - 08:12:49 10° WSW 08:15:50 12° WSW 08:18:51 10° SW visible
21 May - 21:19:52 10° SSW 21:28:26 43° SE 21:37:14 10° ENE daylight
21 May - 23:23:38 10° WSW 23:33:02 76° NNW 23:42:48 10° ENE daylight
22 May - 01:29:55 10° WNW 01:39:12 52° N 01:48:48 10° ENE daylight
22 May - 03:35:47 10° WNW 03:45:32 69° NNE 03:55:35 10° ESE visible
22 May - 05:41:05 10° WNW 05:50:34 53° SW 06:00:15 10° SSE visible
22 May - 07:50:09 10° W 07:54:03 13° WSW 07:57:59 10° SW visible
22 May - 20:58:11 10° SSW 21:06:39 41° SE 21:15:17 10° ENE daylight
22 May - 23:01:45 10° WSW 23:11:09 78° NNW 23:20:54 10° ENE daylight
23 May - 01:08:00 10° WNW 01:17:15 52° N 01:26:50 10° ENE daylight
23 May - 03:13:55 10° WNW 03:23:37 68° NNE 03:33:37 10° ESE visible
23 May - 05:19:11 10° WNW 05:28:43 56° SW 05:38:28 10° SSE visible
23 May - 07:27:41 10° W 07:32:16 14° WSW 07:36:55 10° SSW visible
23 May - 20:36:32 10° SSW 20:44:52 38° SE 20:53:21 10° ENE daylight
23 May - 22:39:54 10° WSW 22:49:17 80° NNW 22:59:00 10° ENE daylight
24 May - 00:46:05 10° W 00:55:19 52° N 01:04:53 10° ENE daylight
24 May - 02:52:03 10° WNW 03:01:42 66° NNE 03:11:40 10° ESE daylight
24 May - 04:57:18 10° WNW 05:06:52 59° SW 05:16:40 10° SE visible
24 May - 07:05:20 10° W 07:10:29 15° WSW 07:15:43 10° SSW visible
24 May - 20:14:54 10° SSW 20:23:04 36° SE 20:31:24 10° ENE daylight
24 May - 22:18:02 10° WSW 22:27:25 83° NNW 22:37:06 10° ENE daylight
